Hourly Weather Russkoe Islamovo

Today, 13 April, Tuesday

Time Temperature Precipitation Wind Pressure Humidity
00:00 +5°C° 0 mm 2 mps 766 mmHg 94%
01:00 +5°C° 0 mm 2 mps 766 mmHg 95%
02:00 +5°C° 0 mm 2 mps 766 mmHg 96%
03:00 +4°C° 0 mm 2 mps 766 mmHg 98%
04:00 +5°C° 0 mm 2 mps 766 mmHg 98%
05:00 +5°C° 0 mm 2 mps 766 mmHg 98%
06:00 +5°C° 0 mm 2 mps 766 mmHg 99%
07:00 +6°C° 0 mm 2 mps 766 mmHg 97%
08:00 +8°C° 0 mm 3 mps 766 mmHg 95%
09:00 +9°C° 0 mm 3 mps 766 mmHg 93%
10:00 +11°C° 0 mm 3 mps 765 mmHg 84%
11:00 +13°C° 0 mm 3 mps 765 mmHg 75%
12:00 +17°C° 0 mm 4 mps 765 mmHg 66%
13:00 +17°C° 0 mm 4 mps 764 mmHg 61%
14:00 +18°C° 0 mm 4 mps 764 mmHg 57%
15:00 +19°C° 0 mm 4 mps 764 mmHg 52%
16:00 +17°C° 0 mm 4 mps 763 mmHg 57%
17:00 +16°C° 0 mm 3 mps 763 mmHg 62%
18:00 +14°C° 0 mm 3 mps 763 mmHg 67%
19:00 +13°C° 0 mm 3 mps 763 mmHg 70%
20:00 +12°C° 0 mm 3 mps 763 mmHg 73%
21:00 +10°C° 0 mm 2 mps 763 mmHg 76%
22:00 +10°C° 0 mm 2 mps 763 mmHg 77%
23:00 +10°C° 0 mm 2 mps 763 mmHg 78%

Tomorrow, 14 April, Wednesday

Time Temperature Precipitation Wind Pressure Humidity
00:00 +9°C° 0 mm 2 mps 762 mmHg 80%
01:00 +9°C° 0 mm 2 mps 762 mmHg 81%
02:00 +8°C° 0 mm 2 mps 762 mmHg 82%
03:00 +8°C° 0 mm 2 mps 762 mmHg 83%
04:00 +8°C° 0 mm 2 mps 762 mmHg 82%
05:00 +8°C° 0 mm 2 mps 762 mmHg 82%
06:00 +8°C° 0 mm 2 mps 762 mmHg 81%
07:00 +10°C° 0 mm 2 mps 761 mmHg 73%
08:00 +12°C° 0 mm 3 mps 761 mmHg 64%
09:00 +14°C° 0 mm 3 mps 761 mmHg 56%
10:00 +15°C° 0 mm 4 mps 761 mmHg 51%
11:00 +17°C° 0 mm 4 mps 761 mmHg 46%
12:00 +17°C° 0 mm 5 mps 760 mmHg 40%
13:00 +17°C° 0 mm 5 mps 760 mmHg 42%
14:00 +19°C° 0 mm 5 mps 759 mmHg 44%
15:00 +19°C° 0 mm 5 mps 759 mmHg 46%
16:00 +18°C° 0 mm 4 mps 759 mmHg 53%
17:00 +17°C° 0 mm 3 mps 758 mmHg 59%
18:00 +16°C° 0 mm 3 mps 758 mmHg 65%
19:00 +15°C° 0 mm 2 mps 758 mmHg 70%
20:00 +14°C° 0 mm 2 mps 758 mmHg 75%
21:00 +13°C° 0 mm 2 mps 758 mmHg 79%
22:00 +12°C° 0 mm 2 mps 757 mmHg 81%
23:00 +12°C° 0 mm 2 mps 757 mmHg 83%

Day after tomorrow, 15 April, Thursday

Time Temperature Precipitation Wind Pressure Humidity
00:00 +10°C° 0 mm 2 mps 757 mmHg 85%
01:00 +10°C° 0 mm 2 mps 757 mmHg 85%
02:00 +10°C° 0 mm 1 mps 756 mmHg 86%
03:00 +10°C° 0 mm 1 mps 756 mmHg 86%
04:00 +10°C° 0 mm 1 mps 756 mmHg 86%
05:00 +10°C° 0 mm 1 mps 756 mmHg 86%
06:00 +10°C° 0 mm 1 mps 756 mmHg 86%
07:00 +12°C° 0 mm 2 mps 756 mmHg 80%
08:00 +13°C° 0 mm 2 mps 755 mmHg 73%
09:00 +15°C° 0 mm 2 mps 755 mmHg 67%
10:00 +16°C° 0 mm 3 mps 755 mmHg 62%
11:00 +17°C° 0 mm 3 mps 755 mmHg 57%
12:00 +18°C° 0 mm 3 mps 755 mmHg 52%
13:00 +18°C° 0 mm 3 mps 754 mmHg 49%
14:00 +19°C° 0 mm 3 mps 754 mmHg 46%
15:00 +19°C° 0 mm 2 mps 754 mmHg 43%
16:00 +18°C° 0 mm 2 mps 753 mmHg 47%
17:00 +17°C° 0 mm 2 mps 753 mmHg 51%
18:00 +17°C° 0 mm 2 mps 753 mmHg 54%
19:00 +15°C° 0 mm 2 mps 753 mmHg 57%
20:00 +14°C° 0 mm 1 mps 753 mmHg 60%
21:00 +13°C° 0 mm 1 mps 753 mmHg 63%
22:00 +13°C° 0 mm 1 mps 753 mmHg 65%
23:00 +12°C° 0 mm 1 mps 753 mmHg 67%

16 April, Friday

Time Temperature Precipitation Wind Pressure Humidity
00:00 +11°C° 0 mm 0 mps 752 mmHg 69%
01:00 +10°C° 0 mm 0 mps 752 mmHg 71%
02:00 +10°C° 0 mm 0 mps 752 mmHg 72%
03:00 +10°C° 0 mm 0 mps 752 mmHg 74%
04:00 +10°C° 0 mm 1 mps 752 mmHg 77%
05:00 +9°C° 0 mm 2 mps 752 mmHg 81%
06:00 +9°C° 0 mm 3 mps 753 mmHg 84%
07:00 +9°C° 0 mm 3 mps 753 mmHg 85%
08:00 +8°C° 0 mm 4 mps 753 mmHg 86%
09:00 +8°C° 0 mm 4 mps 753 mmHg 86%
10:00 +10°C° 0 mm 4 mps 754 mmHg 83%
11:00 +9°C° 0 mm 5 mps 754 mmHg 79%
12:00 +10°C° 0 mm 5 mps 754 mmHg 76%
13:00 +10°C° 0 mm 5 mps 754 mmHg 72%
14:00 +12°C° 0 mm 5 mps 754 mmHg 69%
15:00 +12°C° 0 mm 5 mps 754 mmHg 66%
16:00 +10°C° 0 mm 5 mps 755 mmHg 69%
17:00 +9°C° 0 mm 5 mps 755 mmHg 71%
18:00 +8°C° 0 mm 5 mps 755 mmHg 74%
19:00 +8°C° 0 mm 5 mps 755 mmHg 74%
20:00 +7°C° 0 mm 5 mps 756 mmHg 75%
21:00 +6°C° 0 mm 4 mps 756 mmHg 76%
22:00 +6°C° 0 mm 4 mps 756 mmHg 75%
23:00 +5°C° 0 mm 4 mps 756 mmHg 75%

17 April, Saturday

Time Temperature Precipitation Wind Pressure Humidity
00:00 +4°C° 0 mm 3 mps 756 mmHg 74%
01:00 +3°C° 0 mm 3 mps 756 mmHg 74%
02:00 +2°C° 0 mm 3 mps 757 mmHg 75%
03:00 +1°C° 0 mm 3 mps 757 mmHg 75%
04:00 +1°C° 0 mm 3 mps 757 mmHg 73%
05:00 +1°C° 0 mm 3 mps 757 mmHg 72%
06:00 +1°C° 0 mm 3 mps 758 mmHg 71%
07:00 +3°C° 0 mm 4 mps 758 mmHg 63%
08:00 +3°C° 0 mm 5 mps 758 mmHg 54%
09:00 +5°C° 0 mm 6 mps 758 mmHg 46%
10:00 +7°C° 0 mm 6 mps 759 mmHg 44%
11:00 +6°C° 0 mm 7 mps 759 mmHg 41%
12:00 +6°C° 0 mm 7 mps 759 mmHg 39%
13:00 +6°C° 0 mm 7 mps 759 mmHg 36%
14:00 +6°C° 0 mm 7 mps 760 mmHg 34%
15:00 +6°C° 0 mm 7 mps 760 mmHg 31%
16:00 +5°C° 0 mm 7 mps 760 mmHg 33%
17:00 +5°C° 0 mm 6 mps 761 mmHg 36%
18:00 +5°C° 0 mm 5 mps 761 mmHg 38%
19:00 +4°C° 0 mm 4 mps 761 mmHg 41%
20:00 +1°C° 0 mm 4 mps 762 mmHg 45%
21:00 +1°C° 0 mm 3 mps 762 mmHg 48%
22:00 +1°C° 0 mm 2 mps 762 mmHg 49%
23:00 +1°C° 0 mm 2 mps 762 mmHg 50%

18 April, Sunday

Time Temperature Precipitation Wind Pressure Humidity
00:00 -1°C° 0 mm 2 mps 763 mmHg 51%
01:00 -1°C° 0 mm 2 mps 763 mmHg 50%
02:00 +1°C° 0 mm 1 mps 763 mmHg 49%
03:00 +1°C° 0 mm 1 mps 763 mmHg 49%
04:00 +1°C° 0 mm 1 mps 763 mmHg 47%
05:00 +1°C° 0 mm 1 mps 764 mmHg 46%
06:00 +2°C° 0 mm 1 mps 764 mmHg 45%
07:00 +2°C° 0 mm 2 mps 763 mmHg 40%
08:00 +3°C° 0 mm 4 mps 763 mmHg 36%
09:00 +5°C° 0 mm 5 mps 763 mmHg 32%
10:00 +6°C° 0 mm 5 mps 763 mmHg 34%
11:00 +7°C° 0 mm 6 mps 762 mmHg 37%
12:00 +8°C° 0 mm 7 mps 762 mmHg 39%
13:00 +9°C° 0 mm 7 mps 761 mmHg 39%
14:00 +9°C° 0 mm 7 mps 761 mmHg 40%
15:00 +10°C° 0 mm 7 mps 760 mmHg 40%
16:00 +9°C° 0 mm 6 mps 760 mmHg 44%
17:00 +9°C° 0 mm 6 mps 760 mmHg 47%
18:00 +8°C° 0 mm 5 mps 760 mmHg 51%
19:00 +7°C° 0 mm 5 mps 760 mmHg 57%
20:00 +6°C° 0 mm 4 mps 760 mmHg 62%
21:00 +5°C° 0 mm 4 mps 760 mmHg 68%
22:00 +4°C° 0 mm 4 mps 760 mmHg 71%
23:00 +3°C° 0 mm 3 mps 760 mmHg 74%
Show more